Location: Normandy Village
(37.8755°N, 122.2655°W)
Time: 19:01:18
(UTC+00:00)

Cosmos 1315 Rocket - Pass Details

Date: 22 September 2019
Orbit: 529 x 570 km, 81.2° (Epoch: 22 October)

Event Time Altitude Azimuth Distance (km) Brightness Sun altitude
Exits shadow 12:19:28 41° 299° (WNW) 827 3.3 -19.7°
Drops below altitude 10° 12:23:01 10° 355° (N) 1,876 5.7 -19.1°
Sets 12:25:18 0° 2° (N) 2,776 6.6 -18.6°
